Weather History for KMPV - July, 2013

Change the Weather History Date:

Thursday, July 11, 2013

  Actual Average Record
Temperature  
Mean Temperature 67 °F 67 °F  
Max Temperature 77 °F 79 °F 89 °F (1948)
Min Temperature 56 °F 56 °F 44 °F (1953)
Degree Days  
Heating Degree Days 0 1  
Month to date heating degree days 17  
Since 1 June heating degree days 138  
Since 1 July heating degree days 17  
Cooling Degree Days 2 4  
Month to date cooling degree days 73 34  
Year to date cooling degree days 152 97  
Since 1 June cooling degree days 141 87  
Growing Degree Days 18 (Base 50)    
Moisture  
Dew Point 62 °F    
Average Humidity 77    
Maximum Humidity 100    
Minimum Humidity 53    
Precipitation  
Precipitation 0.09 in 0.13 in 1.36 in (2007)
Month to date precipitation 3.48 1.33  
Year to date precipitation 21.10 18.04  
Sea Level Pressure  
Sea Level Pressure 29.90 in    
Wind  
Wind Speed 5 mph (NW)    
Max Wind Speed 16 mph    
Max Gust Speed 23 mph    
Visibility 9 miles    
Events Rain    
T = Trace of Precipitation, MM = Missing Value Source: NWS Daily Summary

Daily Weather History Graph

Daily Weather History Graph

Search for Another Location

Airport or City:

Trip Planner

Search our weather history database for the weather conditions in past years. The results will help you decide how hot, cold, wet, or windy it might be!

Date:

Astronomy

Jul. 11, 2013 Rise Set
Actual Time 5:17 AM EDT 8:33 PM EDT
Civil Twilight 4:41 AM EDT 9:09 PM EDT
Nautical Twilight 3:55 AM EDT 9:55 PM EDT
Astronomical Twilight 2:58 AM EDT 10:51 PM EDT
Moon 8:42 AM EDT (7/11) 10:02 PM EDT (7/11)
Length of Visible Light 16h 27m
Length of Day
15h 16m
Waxing Crescent, 10% of the Moon is Illuminated
Jul 11
Waxing Crescent
Jul 15
First Quarter
Jul 22
Full
Jul 29
Last Quarter
Aug 6
New

Hourly Weather History & Observations

Time (EDT) Temp. Dew Point Humidity Pressure Visibility Wind Dir Wind Speed Gust Speed Precip Events Conditions
12:51 AM 70.0 °F 68.0 °F 93% 29.79 in 10.0 mi Calm Calm - N/A   Scattered Clouds
1:51 AM 69.1 °F 66.9 °F 93% 29.78 in 9.0 mi South 3.5 mph - N/A   Partly Cloudy
2:51 AM 73.9 °F 66.9 °F 79% 29.78 in 10.0 mi SW 9.2 mph 17.3 mph N/A   Clear
3:33 AM 69.8 °F 66.2 °F 88% 29.82 in 8.0 mi NNW 8.1 mph - N/A   Mostly Cloudy
3:47 AM 69.8 °F 64.4 °F 83% 29.82 in 10.0 mi North 6.9 mph - N/A   Overcast
3:51 AM 69.1 °F 64.9 °F 87% 29.81 in 10.0 mi NNW 4.6 mph - N/A   Overcast
4:51 AM 69.1 °F 64.9 °F 87% 29.83 in 10.0 mi Calm Calm - N/A   Overcast
5:22 AM 68.0 °F 64.4 °F 88% 29.83 in 10.0 mi East 4.6 mph - 0.00 in Rain Light Rain
5:51 AM 68.0 °F 64.9 °F 90% 29.81 in 10.0 mi NNW 3.5 mph - 0.00 in Rain Light Rain
6:51 AM 66.9 °F 66.0 °F 97% 29.85 in 10.0 mi SSW 3.5 mph - 0.00 in   Overcast
7:41 AM 66.2 °F 66.2 °F 100% 29.88 in 3.0 mi Calm Calm - 0.05 in Rain Rain
7:51 AM 66.0 °F 64.9 °F 96% 29.87 in 3.0 mi Calm Calm - 0.08 in Rain Rain
8:51 AM 68.0 °F 64.0 °F 87% 29.88 in 10.0 mi NW 3.5 mph - 0.01 in   Scattered Clouds
9:51 AM 70.0 °F 64.9 °F 84% 29.89 in 10.0 mi NW 6.9 mph - N/A   Mostly Cloudy
10:51 AM 70.0 °F 64.0 °F 81% 29.89 in 10.0 mi WNW 6.9 mph - N/A   Overcast
11:51 AM 72.0 °F 62.1 °F 71% 29.90 in 10.0 mi WNW 8.1 mph - N/A   Mostly Cloudy
12:51 PM 72.0 °F 61.0 °F 68% 29.91 in 10.0 mi WNW 4.6 mph - N/A   Overcast
1:17 PM 73.4 °F 60.8 °F 65% 29.92 in 1.0 mi WNW 9.2 mph - N/A   Haze
1:27 PM 75.2 °F 62.6 °F 65% 29.92 in 3.0 mi NW 9.2 mph - N/A   Haze
1:51 PM 77.0 °F 61.0 °F 58% 29.91 in 10.0 mi NW 10.4 mph - N/A   Partly Cloudy
2:51 PM 75.0 °F 59.0 °F 57% 29.92 in 10.0 mi WNW 9.2 mph - N/A   Scattered Clouds
3:51 PM 75.9 °F 59.0 °F 56% 29.92 in 10.0 mi NNW 9.2 mph 17.3 mph N/A   Clear
4:51 PM 75.0 °F 57.0 °F 53% 29.94 in 10.0 mi NW 12.7 mph 18.4 mph N/A   Clear
5:51 PM 73.9 °F 55.9 °F 53% 29.96 in 10.0 mi NNW 9.2 mph - N/A   Clear
6:51 PM 73.9 °F 57.0 °F 55% 29.97 in 10.0 mi North 5.8 mph 17.3 mph N/A   Mostly Cloudy
7:51 PM 70.0 °F 57.0 °F 63% 30.01 in 10.0 mi NNW 6.9 mph - N/A   Partly Cloudy
8:51 PM 64.9 °F 57.9 °F 78% 30.03 in 10.0 mi NW 3.5 mph - N/A   Partly Cloudy
9:51 PM 62.1 °F 57.9 °F 86% 30.04 in 10.0 mi Calm Calm - N/A   Clear
10:51 PM 59.0 °F 55.9 °F 90% 30.06 in 10.0 mi Calm Calm - N/A   Clear
11:51 PM 59.0 °F 55.9 °F 90% 30.07 in 10.0 mi Calm Calm - N/A   Clear